Time,TemperatureF,DewpointF,PressureIn,WindDirection,WindDirectionDegrees,WindSpeedMPH,WindSpeedGustMPH,Humidity,HourlyPrecipIn,Conditions,Clouds,dailyrainin,SolarRadiationWatts/m^2,SoftwareType,DateUTC
2013-02-22 00:00:00,26.0,23.0,-100.00,SW,231,5.0,11.0,86,-99.99,,,0.01,-0.200000,,2013-02-22 08:00:00,
2013-02-22 00:52:00,26.0,23.0,-100.00,SW,231,5.0,11.0,86,-99.99,,,0.01,-0.200000,,2013-02-22 08:52:00,
2013-02-22 01:00:00,26.0,22.0,-100.00,SW,229,4.0,10.0,83,-99.99,,,0.01,-0.200000,,2013-02-22 09:00:00,
2013-02-22 01:52:00,26.0,22.0,-100.00,SW,229,4.0,10.0,83,-99.99,,,0.01,-0.200000,,2013-02-22 09:52:00,
2013-02-22 02:00:00,27.0,23.0,-100.00,East,90,3.0,7.0,85,-99.99,,,0.01,-0.200000,,2013-02-22 10:00:00,
2013-02-22 02:52:00,27.0,23.0,-100.00,East,90,3.0,7.0,85,-99.99,,,0.01,-0.200000,,2013-02-22 10:52:00,
2013-02-22 03:00:00,26.0,23.0,-100.00,West,279,3.0,8.0,89,-99.99,,,0.01,-0.200000,,2013-02-22 11:00:00,
2013-02-22 03:52:00,26.0,23.0,-100.00,West,279,3.0,8.0,89,-99.99,,,0.01,-0.200000,,2013-02-22 11:52:00,
2013-02-22 04:00:00,26.0,23.0,-100.00,NNE,17,3.0,7.0,90,-99.99,,,0.01,-0.200000,,2013-02-22 12:00:00,
2013-02-22 04:52:00,26.0,23.0,-100.00,NNE,17,3.0,7.0,90,-99.99,,,0.01,-0.200000,,2013-02-22 12:52:00,
2013-02-22 05:00:00,27.0,24.0,-100.00,South,185,2.0,6.0,88,-99.99,,,0.01,-0.200000,,2013-02-22 13:00:00,
2013-02-22 05:52:00,27.0,24.0,-100.00,South,185,2.0,6.0,88,-99.99,,,0.01,-0.200000,,2013-02-22 13:52:00,
2013-02-22 06:00:00,27.0,-99.9,-100.00,North,-999,-999.0,-999.0,-999,-99.99,,,0.00,-3.700000,,2013-02-22 14:00:00,
2013-02-22 06:53:00,27.0,-99.9,-100.00,North,-999,-999.0,-999.0,-999,-99.99,,,0.00,-3.700000,,2013-02-22 14:53:00,
2013-02-22 07:00:00,26.0,25.0,-100.00,South,186,2.0,7.0,96,-99.99,,,0.00,0.200000,,2013-02-22 15:00:00,
2013-02-22 07:52:00,26.0,25.0,-100.00,South,186,2.0,7.0,96,-99.99,,,0.00,0.200000,,2013-02-22 15:52:00,
2013-02-22 08:00:00,26.0,-99.9,-100.00,North,-999,-999.0,-999.0,-999,-99.99,,,0.00,4.600000,,2013-02-22 16:00:00,
2013-02-22 08:52:00,26.0,-99.9,-100.00,North,-999,-999.0,-999.0,-999,-99.99,,,0.00,4.600000,,2013-02-22 16:52:00,
2013-02-22 09:00:00,26.0,25.0,-100.00,SE,143,1.0,2.0,96,-99.99,,,0.01,41.500000,,2013-02-22 17:00:00,
2013-02-22 09:52:00,26.0,25.0,-100.00,SE,143,1.0,2.0,96,-99.99,,,0.01,41.500000,,2013-02-22 17:52:00,
2013-02-22 10:00:00,27.0,26.0,-100.00,South,176,1.0,4.0,96,-99.99,,,0.01,22.600000,,2013-02-22 18:00:00,
2013-02-22 10:52:00,27.0,26.0,-100.00,South,176,1.0,4.0,96,-99.99,,,0.01,22.600000,,2013-02-22 18:52:00,
2013-02-22 11:00:00,28.0,27.0,-100.00,SSW,198,1.0,4.0,96,-99.99,,,0.01,27.500000,,2013-02-22 19:00:00,
2013-02-22 11:52:00,28.0,27.0,-100.00,SSW,198,1.0,4.0,96,-99.99,,,0.01,27.500000,,2013-02-22 19:52:00,
2013-02-22 12:00:00,30.0,29.0,-100.00,SSW,199,2.0,5.0,96,-99.99,,,0.01,25.299999,,2013-02-22 20:00:00,
2013-02-22 12:52:00,30.0,29.0,-100.00,SSW,199,2.0,5.0,96,-99.99,,,0.01,25.299999,,2013-02-22 20:52:00,
2013-02-22 13:00:00,32.0,31.0,-100.00,SSE,154,3.0,7.0,95,-99.99,,,0.01,29.700001,,2013-02-22 21:00:00,
2013-02-22 13:52:00,32.0,31.0,-100.00,SSE,154,3.0,7.0,95,-99.99,,,0.01,29.700001,,2013-02-22 21:52:00,
2013-02-22 14:00:00,33.0,31.0,-100.00,SSW,208,5.0,9.0,93,-99.99,,,0.01,34.500000,,2013-02-22 22:00:00,
2013-02-22 14:52:00,33.0,31.0,-100.00,SSW,208,5.0,9.0,93,-99.99,,,0.01,34.500000,,2013-02-22 22:52:00,
2013-02-22 15:00:00,32.0,30.0,-100.00,SSE,157,4.0,11.0,94,-99.99,,,0.01,23.100000,,2013-02-22 23:00:00,
2013-02-22 15:52:00,32.0,30.0,-100.00,SSE,157,4.0,11.0,94,-99.99,,,0.01,23.100000,,2013-02-22 23:52:00,
2013-02-22 16:00:00,31.0,29.0,-100.00,WSW,250,5.0,10.0,94,-99.99,,,0.02,12.100000,,2013-02-23 00:00:00,
2013-02-22 16:52:00,31.0,29.0,-100.00,WSW,250,5.0,10.0,94,-99.99,,,0.02,12.100000,,2013-02-23 00:52:00,
2013-02-22 17:00:00,30.0,28.0,-100.00,SSW,198,6.0,13.0,93,-99.99,,,0.02,4.600000,,2013-02-23 01:00:00,
2013-02-22 17:52:00,30.0,28.0,-100.00,SSW,198,6.0,13.0,93,-99.99,,,0.02,4.600000,,2013-02-23 01:52:00,
2013-02-22 18:00:00,27.0,25.0,-100.00,ESE,120,6.0,13.0,90,-99.99,,,0.02,0.700000,,2013-02-23 02:00:00,
2013-02-22 18:52:00,27.0,25.0,-100.00,ESE,120,6.0,13.0,90,-99.99,,,0.02,0.700000,,2013-02-23 02:52:00,
2013-02-22 19:00:00,26.0,22.0,-100.00,West,274,6.0,11.0,88,-99.99,,,0.02,-4.200000,,2013-02-23 03:00:00,
2013-02-22 19:52:00,26.0,22.0,-100.00,West,274,6.0,11.0,88,-99.99,,,0.02,-4.200000,,2013-02-23 03:52:00,
2013-02-22 20:00:00,24.0,22.0,-100.00,SSW,208,6.0,12.0,91,-99.99,,,-99.99,-4.200000,,2013-02-23 04:00:00,
2013-02-22 20:52:00,24.0,22.0,-100.00,SSW,208,6.0,12.0,91,-99.99,,,-99.99,-4.200000,,2013-02-23 04:52:00,
2013-02-22 21:00:00,22.0,20.0,-100.00,West,261,6.0,12.0,90,-99.99,,,0.02,-0.200000,,2013-02-23 05:00:00,
2013-02-22 21:52:00,22.0,20.0,-100.00,West,261,6.0,12.0,90,-99.99,,,0.02,-0.200000,,2013-02-23 05:52:00,
2013-02-22 22:00:00,22.0,20.0,-100.00,SSW,211,6.0,11.0,92,-99.99,,,0.02,-0.200000,,2013-02-23 06:00:00,
2013-02-22 22:52:00,22.0,20.0,-100.00,SSW,211,6.0,11.0,92,-99.99,,,0.02,-0.200000,,2013-02-23 06:52:00,
2013-02-22 23:00:00,21.0,19.0,-100.00,WSW,250,7.0,12.0,92,-99.99,,,0.02,-0.200000,,2013-02-23 07:00:00,
2013-02-22 23:52:00,21.0,19.0,-100.00,WSW,250,7.0,12.0,92,-99.99,,,0.02,-0.200000,,2013-02-23 07:52:00,